SJV665 WAOO-WAHI

Flight info

Callsign SJV665
Flight time 1h 13m
Altitude 36000
Route RITBO DCT SIPUT W52 LASEM DCT PURWO W17N SO
Aircraft A320/M-SDE3FGHIRWY/LB1

Departure

Time 2026-05-05 13:24
Airport Syamsudin Noor International Airport (WAOO)

Arrival

Time 2026-05-05 14:37
Airport Yogyakarta International Airport (WAHI)
Time Latitude Longitude Altitude Speed Heading
2026-05-05 13:06 -3.43840 114.76015 72 ft 0 kts 10°
2026-05-05 13:15 -3.43854 114.76012 72 ft 2 kts 10°
2026-05-05 13:16 -3.43868 114.76009 73 ft 2 kts 10°
2026-05-05 13:16 -3.43882 114.76007 73 ft 1 kts 10°
2026-05-05 13:16 -3.43895 114.76006 73 ft 2 kts 350°
2026-05-05 13:16 -3.43909 114.76010 73 ft 2 kts 328°
2026-05-05 13:17 -3.43920 114.76020 73 ft 2 kts 304°
2026-05-05 13:17 -3.43925 114.76032 73 ft 0 kts 283°
2026-05-05 13:17 -3.43926 114.76038 73 ft 1 kts 279°
2026-05-05 13:17 -3.43926 114.76039 73 ft 0 kts 279°
2026-05-05 13:19 -3.43926 114.76036 73 ft 1 kts 279°
2026-05-05 13:19 -3.43921 114.76004 73 ft 7 kts 279°
2026-05-05 13:20 -3.43910 114.75942 73 ft 10 kts 280°
2026-05-05 13:20 -3.43897 114.75873 73 ft 11 kts 280°
2026-05-05 13:20 -3.43883 114.75794 73 ft 12 kts 280°
2026-05-05 13:20 -3.43873 114.75737 73 ft 5 kts 280°
2026-05-05 13:21 -3.43886 114.75703 73 ft 6 kts 209°
2026-05-05 13:21 -3.43949 114.75691 73 ft 11 kts 188°
2026-05-05 13:21 -3.44047 114.75674 73 ft 16 kts 189°
2026-05-05 13:21 -3.44110 114.75647 73 ft 10 kts 254°
2026-05-05 13:22 -3.44104 114.75568 73 ft 14 kts 281°
2026-05-05 13:22 -3.44082 114.75452 73 ft 19 kts 280°
2026-05-05 13:22 -3.44058 114.75318 73 ft 14 kts 280°
2026-05-05 13:22 -3.44036 114.75248 73 ft 11 kts 301°
2026-05-05 13:23 -3.44005 114.75195 73 ft 4 kts 287°
2026-05-05 13:23 -3.44026 114.75182 73 ft 5 kts 139°
2026-05-05 13:23 -3.44047 114.75247 73 ft 25 kts 99°
2026-05-05 13:23 -3.44129 114.75706 74 ft 107 kts 100°
2026-05-05 13:24 -3.44306 114.76658 159 ft 165 kts 100°
2026-05-05 13:24 -3.44508 114.77784 1015 ft 162 kts 100°
2026-05-05 13:24 -3.44925 114.78806 1822 ft 162 kts 136°
2026-05-05 13:24 -3.45971 114.79202 2310 ft 173 kts 185°
2026-05-05 13:25 -3.47087 114.78676 2760 ft 190 kts 228°
2026-05-05 13:25 -3.47709 114.77402 3202 ft 212 kts 252°
2026-05-05 13:25 -3.48155 114.75948 3758 ft 230 kts 253°
2026-05-05 13:25 -3.48666 114.74356 4332 ft 249 kts 248°
2026-05-05 13:26 -3.49674 114.72852 4918 ft 267 kts 226°
2026-05-05 13:26 -3.50992 114.71534 5792 ft 272 kts 224°
2026-05-05 13:26 -3.52393 114.70184 6742 ft 275 kts 224°
2026-05-05 13:26 -3.53777 114.68847 7631 ft 279 kts 224°
2026-05-05 13:27 -3.55164 114.67496 8492 ft 282 kts 224°
2026-05-05 13:27 -3.56584 114.66103 9336 ft 285 kts 224°
2026-05-05 13:27 -3.58013 114.64695 10139 ft 289 kts 224°
2026-05-05 13:27 -3.59494 114.63232 10728 ft 300 kts 224°
2026-05-05 13:28 -3.61041 114.61703 11085 ft 319 kts 224°
2026-05-05 13:28 -3.62665 114.60094 11409 ft 337 kts 224°
2026-05-05 13:28 -3.64385 114.58392 11838 ft 350 kts 224°
2026-05-05 13:28 -3.66154 114.56639 12547 ft 354 kts 224°
2026-05-05 13:29 -3.67919 114.54889 13268 ft 357 kts 224°
2026-05-05 13:29 -3.69723 114.53101 13951 ft 360 kts 224°
2026-05-05 13:29 -3.71521 114.51318 14608 ft 364 kts 224°
2026-05-05 13:29 -3.73347 114.49507 15256 ft 367 kts 224°
2026-05-05 13:30 -3.75185 114.47683 15885 ft 371 kts 224°
2026-05-05 13:30 -3.77035 114.45848 16496 ft 374 kts 224°
2026-05-05 13:30 -3.78934 114.43964 17102 ft 377 kts 224°
2026-05-05 13:30 -3.80821 114.42092 17686 ft 381 kts 224°
2026-05-05 13:31 -3.82747 114.40181 18264 ft 384 kts 224°
2026-05-05 13:31 -3.84646 114.38296 18817 ft 387 kts 224°
2026-05-05 13:31 -3.86593 114.36363 19368 ft 391 kts 224°
2026-05-05 13:31 -3.88543 114.34428 19902 ft 394 kts 225°
2026-05-05 13:32 -3.90496 114.32477 20422 ft 397 kts 225°
2026-05-05 13:32 -3.92489 114.30486 20934 ft 400 kts 225°
2026-05-05 13:32 -3.94454 114.28525 21421 ft 403 kts 225°
2026-05-05 13:32 -3.96486 114.26501 21908 ft 406 kts 225°
2026-05-05 13:33 -3.98494 114.24503 22373 ft 408 kts 225°
2026-05-05 13:33 -4.00545 114.22464 22832 ft 411 kts 225°
2026-05-05 13:33 -4.02604 114.20418 23275 ft 414 kts 225°
2026-05-05 13:33 -4.04656 114.18380 23705 ft 417 kts 224°
2026-05-05 13:34 -4.06765 114.16285 24135 ft 420 kts 224°
2026-05-05 13:34 -4.08837 114.14226 24544 ft 422 kts 224°
2026-05-05 13:34 -4.10979 114.12099 24954 ft 425 kts 224°
2026-05-05 13:34 -4.13115 114.09992 25351 ft 428 kts 224°
2026-05-05 13:35 -4.15263 114.07872 25740 ft 430 kts 224°
2026-05-05 13:35 -4.17437 114.05722 26124 ft 433 kts 224°
2026-05-05 13:35 -4.19581 114.03597 26495 ft 435 kts 224°
2026-05-05 13:35 -4.21780 114.01417 26865 ft 438 kts 224°
2026-05-05 13:36 -4.23942 113.99271 27224 ft 440 kts 225°
2026-05-05 13:36 -4.26147 113.97080 27576 ft 442 kts 225°
2026-05-05 13:36 -4.28350 113.94891 27920 ft 445 kts 225°
2026-05-05 13:36 -4.30587 113.92668 28262 ft 447 kts 225°
2026-05-05 13:37 -4.32822 113.90447 28597 ft 449 kts 225°
2026-05-05 13:37 -4.35068 113.88214 28921 ft 452 kts 225°
2026-05-05 13:37 -4.37320 113.85976 29249 ft 453 kts 225°
2026-05-05 13:37 -4.39576 113.83731 29671 ft 452 kts 225°
2026-05-05 13:38 -4.41810 113.81510 30113 ft 451 kts 225°
2026-05-05 13:38 -4.44039 113.79293 30533 ft 450 kts 225°
2026-05-05 13:38 -4.46282 113.77062 30936 ft 449 kts 225°
2026-05-05 13:38 -4.48534 113.74821 31330 ft 448 kts 225°
2026-05-05 13:39 -4.50737 113.72628 31710 ft 448 kts 225°
2026-05-05 13:39 -4.52977 113.70399 32091 ft 447 kts 225°
2026-05-05 13:39 -4.55199 113.68188 32462 ft 446 kts 225°
2026-05-05 13:39 -4.57394 113.66003 32821 ft 445 kts 225°
2026-05-05 13:40 -4.59637 113.63770 33181 ft 445 kts 225°
2026-05-05 13:40 -4.61843 113.61574 33529 ft 444 kts 225°
2026-05-05 13:40 -4.64050 113.59377 33869 ft 443 kts 225°
2026-05-05 13:40 -4.66235 113.57200 34197 ft 443 kts 225°
2026-05-05 13:41 -4.68443 113.55001 34490 ft 443 kts 225°
2026-05-05 13:41 -4.70667 113.52786 34740 ft 444 kts 225°
2026-05-05 13:41 -4.72873 113.50589 34970 ft 445 kts 225°
2026-05-05 13:41 -4.75122 113.48348 35203 ft 446 kts 225°
2026-05-05 13:42 -4.77319 113.46160 35424 ft 447 kts 225°
2026-05-05 13:42 -4.79552 113.43935 35639 ft 448 kts 225°
2026-05-05 13:42 -4.81785 113.41710 35843 ft 449 kts 225°
2026-05-05 13:42 -4.84003 113.39500 35985 ft 450 kts 225°
2026-05-05 13:43 -4.88491 113.35027 35997 ft 451 kts 225°
2026-05-05 13:43 -4.92969 113.30540 36000 ft 451 kts 225°
2026-05-05 13:44 -4.97480 113.26022 36001 ft 451 kts 225°
2026-05-05 13:44 -5.01940 113.21567 36001 ft 451 kts 225°
2026-05-05 13:45 -5.06434 113.17082 36001 ft 451 kts 225°
2026-05-05 13:45 -5.10921 113.12608 36001 ft 451 kts 224°
2026-05-05 13:46 -5.15394 113.08173 36001 ft 451 kts 224°
2026-05-05 13:46 -5.19871 113.03723 36001 ft 451 kts 225°
2026-05-05 13:47 -5.24395 112.99215 36001 ft 451 kts 225°
2026-05-05 13:47 -5.28875 112.94745 36001 ft 451 kts 225°
2026-05-05 13:48 -5.33341 112.90286 36001 ft 451 kts 225°
2026-05-05 13:48 -5.37817 112.85815 36001 ft 451 kts 225°
2026-05-05 13:49 -5.42279 112.81358 36001 ft 451 kts 225°
2026-05-05 13:49 -5.46772 112.76868 36001 ft 451 kts 225°
2026-05-05 13:50 -5.51261 112.72382 36001 ft 451 kts 225°
2026-05-05 13:50 -5.55728 112.67916 36001 ft 451 kts 225°
2026-05-05 13:51 -5.60194 112.63451 36001 ft 451 kts 225°
2026-05-05 13:51 -5.64681 112.58964 36001 ft 451 kts 225°
2026-05-05 13:52 -5.69133 112.54510 36001 ft 451 kts 225°
2026-05-05 13:52 -5.73613 112.50028 36001 ft 451 kts 225°
2026-05-05 13:53 -5.78085 112.45552 36001 ft 451 kts 225°
2026-05-05 13:53 -5.82561 112.41071 36001 ft 451 kts 225°
2026-05-05 13:54 -5.87050 112.36576 36001 ft 451 kts 225°
2026-05-05 13:54 -5.91495 112.32111 36001 ft 451 kts 225°
2026-05-05 13:55 -5.95955 112.27617 36001 ft 451 kts 225°
2026-05-05 13:55 -6.00432 112.23120 36001 ft 451 kts 225°
2026-05-05 13:56 -6.04896 112.18643 36001 ft 451 kts 225°
2026-05-05 13:56 -6.09335 112.14192 36001 ft 451 kts 225°
2026-05-05 13:57 -6.13860 112.09676 36001 ft 451 kts 225°
2026-05-05 13:57 -6.18346 112.05199 36001 ft 451 kts 225°
2026-05-05 13:58 -6.22808 112.00729 36001 ft 451 kts 225°
2026-05-05 13:58 -6.27261 111.96262 36001 ft 451 kts 225°
2026-05-05 13:59 -6.33962 111.89535 36001 ft 451 kts 225°
2026-05-05 14:00 -6.40665 111.82802 36001 ft 451 kts 225°
2026-05-05 14:00 -6.45121 111.78323 36001 ft 451 kts 225°
2026-05-05 14:01 -6.49533 111.73886 36001 ft 451 kts 225°
2026-05-05 14:01 -6.53965 111.69426 36001 ft 451 kts 225°
2026-05-05 14:02 -6.58347 111.65016 36000 ft 451 kts 225°
2026-05-05 14:02 -6.62480 111.60333 36001 ft 451 kts 232°
2026-05-05 14:03 -6.66106 111.55228 36001 ft 451 kts 236°
2026-05-05 14:03 -6.69585 111.50020 36001 ft 451 kts 236°
2026-05-05 14:04 -6.73079 111.44795 36001 ft 451 kts 236°
2026-05-05 14:04 -6.76534 111.39642 36001 ft 451 kts 236°
2026-05-05 14:05 -6.79981 111.34502 36001 ft 451 kts 236°
2026-05-05 14:05 -6.83430 111.29335 36001 ft 451 kts 236°
2026-05-05 14:06 -6.86873 111.24184 36001 ft 451 kts 236°
2026-05-05 14:06 -6.90330 111.19022 36001 ft 451 kts 236°
2026-05-05 14:07 -6.93800 111.13844 36001 ft 451 kts 236°
2026-05-05 14:07 -6.97304 111.08616 36001 ft 451 kts 236°
2026-05-05 14:08 -7.00804 111.03391 36001 ft 451 kts 236°
2026-05-05 14:08 -7.04304 110.98167 36001 ft 451 kts 236°
2026-05-05 14:09 -7.07735 110.93044 36001 ft 451 kts 236°
2026-05-05 14:09 -7.11261 110.87785 36001 ft 451 kts 236°
2026-05-05 14:10 -7.14820 110.82669 35997 ft 451 kts 230°
2026-05-05 14:10 -7.19406 110.78467 35607 ft 452 kts 213°
2026-05-05 14:11 -7.22154 110.76910 35030 ft 450 kts 204°
2026-05-05 14:11 -7.25062 110.75808 34393 ft 450 kts 196°
2026-05-05 14:11 -7.28116 110.75150 33722 ft 450 kts 187°
2026-05-05 14:11 -7.31226 110.74928 33048 ft 450 kts 181°
2026-05-05 14:12 -7.34341 110.74882 32365 ft 451 kts 180°
2026-05-05 14:12 -7.37484 110.74863 31661 ft 452 kts 180°
2026-05-05 14:12 -7.40634 110.74834 30941 ft 453 kts 180°
2026-05-05 14:12 -7.43774 110.74790 30210 ft 454 kts 181°
2026-05-05 14:13 -7.46936 110.74710 29448 ft 455 kts 184°
2026-05-05 14:13 -7.50028 110.74055 28692 ft 455 kts 200°
2026-05-05 14:13 -7.52798 110.72567 28213 ft 449 kts 216°
2026-05-05 14:13 -7.55048 110.70454 27742 ft 443 kts 227°
2026-05-05 14:14 -7.57070 110.68137 27256 ft 438 kts 229°
2026-05-05 14:14 -7.59039 110.65812 26765 ft 434 kts 229°
2026-05-05 14:14 -7.61006 110.63497 26273 ft 429 kts 229°
2026-05-05 14:14 -7.62948 110.61234 25784 ft 425 kts 229°
2026-05-05 14:15 -7.64877 110.59001 25299 ft 421 kts 229°
2026-05-05 14:15 -7.66782 110.56806 24816 ft 417 kts 229°
2026-05-05 14:15 -7.68686 110.54616 24334 ft 414 kts 229°
2026-05-05 14:15 -7.70586 110.52433 23848 ft 410 kts 229°
2026-05-05 14:16 -7.72457 110.50283 23370 ft 407 kts 229°
2026-05-05 14:16 -7.74309 110.48156 22893 ft 404 kts 229°
2026-05-05 14:16 -7.76132 110.46046 22417 ft 401 kts 231°
2026-05-05 14:16 -7.77665 110.43729 21933 ft 398 kts 243°
2026-05-05 14:17 -7.78669 110.41181 21461 ft 395 kts 255°
2026-05-05 14:17 -7.79175 110.38477 20996 ft 393 kts 262°
2026-05-05 14:17 -7.79499 110.35746 20529 ft 391 kts 263°
2026-05-05 14:17 -7.79766 110.32999 20057 ft 389 kts 266°
2026-05-05 14:18 -7.79838 110.30314 19596 ft 387 kts 271°
2026-05-05 14:18 -7.79683 110.27615 19132 ft 385 kts 276°
2026-05-05 14:18 -7.79380 110.24907 18666 ft 384 kts 277°
2026-05-05 14:18 -7.79056 110.22249 18205 ft 382 kts 277°
2026-05-05 14:19 -7.78736 110.19617 17747 ft 380 kts 277°
2026-05-05 14:19 -7.78418 110.16975 17284 ft 378 kts 277°
2026-05-05 14:19 -7.78104 110.14323 16820 ft 376 kts 277°
2026-05-05 14:19 -7.77798 110.11729 16364 ft 375 kts 277°
2026-05-05 14:20 -7.77492 110.09121 15905 ft 373 kts 277°
2026-05-05 14:20 -7.77183 110.06492 15440 ft 371 kts 277°
2026-05-05 14:20 -7.76882 110.03910 14989 ft 369 kts 275°
2026-05-05 14:20 -7.76991 110.01337 14924 ft 365 kts 257°
2026-05-05 14:21 -7.77976 109.98976 14948 ft 365 kts 236°
2026-05-05 14:21 -7.79756 109.97115 14973 ft 366 kts 214°
2026-05-05 14:21 -7.82086 109.96011 14964 ft 366 kts 197°
2026-05-05 14:21 -7.84596 109.95328 14463 ft 368 kts 194°
2026-05-05 14:22 -7.87118 109.94709 13955 ft 367 kts 193°
2026-05-05 14:22 -7.89618 109.94086 13477 ft 366 kts 194°
2026-05-05 14:22 -7.92083 109.93452 13300 ft 354 kts 194°
2026-05-05 14:22 -7.94490 109.92818 13210 ft 340 kts 194°
2026-05-05 14:23 -7.96788 109.92207 13125 ft 328 kts 194°
2026-05-05 14:23 -7.98984 109.91619 13054 ft 315 kts 195°
2026-05-05 14:23 -8.01123 109.91046 13001 ft 303 kts 195°
2026-05-05 14:23 -8.03164 109.90501 12940 ft 292 kts 194°
2026-05-05 14:24 -8.05152 109.89975 12647 ft 286 kts 194°
2026-05-05 14:24 -8.07088 109.89465 12155 ft 278 kts 194°
2026-05-05 14:24 -8.08951 109.88974 11752 ft 268 kts 194°
2026-05-05 14:24 -8.10750 109.88500 11375 ft 259 kts 194°
2026-05-05 14:25 -8.12524 109.88035 10947 ft 257 kts 194°
2026-05-05 14:25 -8.14283 109.87579 10514 ft 254 kts 192°
2026-05-05 14:25 -8.16045 109.87574 10106 ft 252 kts 163°
2026-05-05 14:25 -8.17586 109.88463 9858 ft 248 kts 134°
2026-05-05 14:26 -8.18495 109.89944 9356 ft 246 kts 106°
2026-05-05 14:26 -8.18887 109.91623 8987 ft 245 kts 101°
2026-05-05 14:26 -8.19225 109.93344 8775 ft 241 kts 101°
2026-05-05 14:26 -8.19562 109.95019 8499 ft 235 kts 102°
2026-05-05 14:27 -8.19814 109.96671 7984 ft 237 kts 87°
2026-05-05 14:27 -8.19352 109.98278 7637 ft 238 kts 56°
2026-05-05 14:27 -8.18135 109.99428 7327 ft 238 kts 26°
2026-05-05 14:27 -8.16525 109.99927 7042 ft 237 kts 12°
2026-05-05 14:28 -8.14891 110.00255 6760 ft 237 kts 11°
2026-05-05 14:28 -8.13240 110.00565 6476 ft 237 kts
2026-05-05 14:28 -8.11596 110.00394 6188 ft 236 kts 339°
2026-05-05 14:28 -8.10135 109.99622 5924 ft 234 kts 328°
2026-05-05 14:29 -8.08741 109.98747 5655 ft 234 kts 328°
2026-05-05 14:29 -8.07336 109.97864 5384 ft 233 kts 328°
2026-05-05 14:29 -8.05944 109.97007 5117 ft 233 kts 329°
2026-05-05 14:29 -8.04551 109.96162 4904 ft 229 kts 329°
2026-05-05 14:30 -8.03165 109.95326 4690 ft 227 kts 329°
2026-05-05 14:30 -8.01782 109.94496 4355 ft 230 kts 329°
2026-05-05 14:30 -8.00418 109.93679 4156 ft 226 kts 329°
2026-05-05 14:30 -7.99047 109.92858 3838 ft 223 kts 329°
2026-05-05 14:31 -7.97698 109.92050 3446 ft 221 kts 329°
2026-05-05 14:31 -7.96357 109.91248 3119 ft 222 kts 329°
2026-05-05 14:31 -7.95024 109.90449 2815 ft 224 kts 329°
2026-05-05 14:31 -7.93605 109.89677 2506 ft 227 kts 338°
2026-05-05 14:32 -7.92134 109.89213 2415 ft 208 kts 346°
2026-05-05 14:32 -7.90754 109.88890 2401 ft 195 kts 347°
2026-05-05 14:32 -7.89412 109.88630 2120 ft 194 kts 359°
2026-05-05 14:32 -7.88187 109.89072 1978 ft 178 kts 44°
2026-05-05 14:33 -7.87451 109.89994 2018 ft 156 kts 54°
2026-05-05 14:33 -7.86849 109.90861 1914 ft 144 kts 55°
2026-05-05 14:33 -7.86274 109.91685 1687 ft 140 kts 54°
2026-05-05 14:33 -7.85785 109.92542 1514 ft 139 kts 80°
2026-05-05 14:34 -7.85942 109.93504 1534 ft 140 kts 110°
2026-05-05 14:34 -7.86306 109.94422 1514 ft 140 kts 113°
2026-05-05 14:34 -7.86688 109.95325 1506 ft 140 kts 113°
2026-05-05 14:34 -7.87063 109.96260 1503 ft 140 kts 111°
2026-05-05 14:35 -7.87415 109.97194 1486 ft 140 kts 110°
2026-05-05 14:35 -7.87751 109.98110 1325 ft 140 kts 110°
2026-05-05 14:35 -7.88091 109.99046 1136 ft 139 kts 110°
2026-05-05 14:35 -7.88429 109.99973 949 ft 139 kts 110°
2026-05-05 14:36 -7.88766 110.00897 763 ft 138 kts 110°
2026-05-05 14:36 -7.89104 110.01826 576 ft 138 kts 110°
2026-05-05 14:36 -7.89437 110.02738 392 ft 138 kts 110°
2026-05-05 14:36 -7.89777 110.03677 203 ft 137 kts 110°
2026-05-05 14:37 -7.90109 110.04584 41 ft 135 kts 111°
2026-05-05 14:37 -7.90408 110.05395 30 ft 100 kts 110°
2026-05-05 14:37 -7.90593 110.05911 30 ft 55 kts 111°
2026-05-05 14:37 -7.90652 110.06122 29 ft 14 kts 87°
2026-05-05 14:38 -7.90645 110.06206 29 ft 12 kts 85°
2026-05-05 14:38 -7.90634 110.06298 29 ft 13 kts 76°
2026-05-05 14:38 -7.90614 110.06396 29 ft 14 kts 79°
2026-05-05 14:38 -7.90594 110.06458 29 ft 7 kts 39°
2026-05-05 14:39 -7.90520 110.06485 29 ft 14 kts 18°
2026-05-05 14:39 -7.90471 110.06501 29 ft 3 kts 14°
2026-05-05 14:39 -7.90427 110.06480 29 ft 11 kts 294°
2026-05-05 14:39 -7.90406 110.06413 29 ft 8 kts 292°
2026-05-05 14:40 -7.90380 110.06349 29 ft 10 kts 292°
2026-05-05 14:40 -7.90352 110.06274 29 ft 11 kts 290°
2026-05-05 14:40 -7.90321 110.06191 29 ft 13 kts 290°
2026-05-05 14:40 -7.90287 110.06100 29 ft 14 kts 290°
2026-05-05 14:41 -7.90252 110.06003 29 ft 15 kts 290°
2026-05-05 14:41 -7.90223 110.05926 29 ft 3 kts 290°
2026-05-05 14:41 -7.90216 110.05907 29 ft 3 kts 294°
2026-05-05 14:41 -7.90198 110.05895 29 ft 2 kts 360°
2026-05-05 14:42 -7.90170 110.05902 29 ft 5 kts 21°
2026-05-05 14:42 -7.90135 110.05916 29 ft 5 kts 21°
2026-05-05 14:42 -7.90113 110.05924 29 ft 0 kts 21°
2026-05-05 14:42 -7.90112 110.05925 29 ft 0 kts 21°